RH
32 39 47 49 50 46 46 48 52 53 52 49 45 45 43 37 35 60 85 93 98 98 98 97 95 95 95 97 98 98 98 96 98 98 96 89 86 84 82 75 80 82 84 85 83 84 77 56 54 50 47 44 41 43
46 50 49 49 51 50 48 47 50 55 59 57 53 45 38 31 27 55 74 84 92 98 97 98 98 98 97 97 97 98 96 92 93 94 92 91 90 90 83 82 77 78 70 66 66 53 55 49 42 45 48 48 49 51
57 57 57 59 62 62 65 64 64 58 59 64 61 51 38 24 36 63 66 74 88 94 98 98 98 97 97 97 97 96 96 94 90 88 90 89 86 80 84 76 69 62 59 55 49 34 34 36 34 32 35 39 40 47
80 89 95 91 80 72 66 78 89 86 78 76 73 51 26 31 62 74 77 77 78 87 94 97 97 98 98 98 97 95 92 93 91 87 84 81 76 69 64 57 54 48 50 39 39 34 32 28 29 32 33 36 41 45
96 94 95 86 89 88 72 70 86 95 97 78 64 37 45 72 76 65 76 82 83 83 92 98 97 98 97 95 92 90 88 87 83 82 79 70 62 53 48 47 45 32 31 36 36 32 36 32 38 42 44 48 53 56
93 97 98 97 98 82 68 36 31 44 52 55 50 69 79 79 87 88 92 96 90 85 93 95 97 97 95 91 88 84 81 78 72 69 62 56 51 46 51 42 31 28 31 36 33 38 40 40 45 51 54 59 61 60
98 98 98 98 95 96 86 89 87 81 78 93 98 98 96 97 98 94 82 82 84 81 89 94 94 93 90 79 75 70 61 60 59 58 55 51 48 44 46 40 27 32 35 39 43 46 44 49 51 56 57 60 62 65
97 98 98 98 98 98 98 98 98 98 98 98 99 97 91 89 89 90 89 90 82 79 75 82 87 80 74 69 65 62 57 53 49 50 45 41 48 48 44 25 29 34 39 43 47 53 54 63 65 69 66 62 65 67
97 95 92 92 95 97 97 98 98 98 96 93 87 83 85 83 79 77 71 63 59 52 64 68 71 71 61 57 52 48 46 47 42 44 44 46 44 54 31 35 34 37 46 59 65 68 74 73 77 82 77 75 77 77
86 77 71 73 75 75 78 79 78 77 73 70 67 64 68 68 61 56 52 50 46 47 51 57 54 52 48 44 44 41 41 43 49 46 49 48 43 41 41 42 43 54 62 76 86 87 82 85 82 83 81 80 81 80
72 70 66 62 60 57 56 58 58 56 55 53 55 58 55 50 46 43 46 46 45 47 45 45 39 35 36 39 41 43 47 49 52 55 53 49 47 61 57 59 62 68 74 96 97 95 92 87 83 78 73 71 72 73
65 64 62 59 57 56 52 45 41 39 40 40 41 41 37 34 36 38 43 39 38 41 41 42 44 44 45 47 49 52 53 53 54 56 62 59 69 67 65 71 79 76 97 98 96 93 87 82 80 78 74 71 69 67
66 64 60 56 52 49 46 43 37 35 34 31 31 32 35 34 35 34 41 42 45 43 43 42 45 48 48 49 48 50 54 58 59 70 68 60 69 74 77 80 79 90 96 97 98 95 85 78 73 73 70 67 66 65
62 59 55 51 48 46 44 40 36 31 27 28 32 37 38 39 39 41 37 40 41 42 46 53 58 62 60 55 56 59 58 64 72 73 66 69 78 82 87 93 97 97 95 94 90 86 81 77 68 66 65 63 61 59
64 60 56 52 48 45 41 38 34 31 32 36 36 43 46 45 43 44 44 43 52 54 54 60 65 66 68 71 68 66 71 70 64 62 67 76 78 79 86 84 82 82 80 81 80 77 74 70 67 64 62 61 60 60
65 62 59 56 52 49 45 41 39 35 35 38 38 42 41 41 43 48 51 53 55 59 60 64 65 64 62 62 66 65 65 62 60 67 70 73 75 74 74 74 72 71 68 66 66 66 67 65 62 59 57 58 59 58
51 53 53 51 47 45 42 35 29 26 30 32 37 35 39 43 48 48 48 50 52 60 61 57 59 57 59 61 59 58 59 62 63 69 71 74 74 75 73 70 65 60 60 59 57 55 55 54 55 57 56 58 57 57
43 43 40 38 36 31 27 25 25 28 31 36 41 41 43 42 41 43 44 45 48 52 54 56 55 57 59 60 59 66 68 70 72 75 76 73 71 71 67 67 65 62 61 57 50 46 45 45 50 51 54 57 60 62
24 27 28 26 25 24 25 25 28 33 37 38 38 38 39 40 41 45 50 51 53 55 56 57 57 55 56 54 56 57 62 66 69 73 77 75 76 73 71 68 66 63 57 47 41 37 33 29 30 35 39 44 50 56
21 21 21 22 22 24 32 34 35 38 41 45 45 47 47 50 52 51 53 55 56 61 60 57 48 47 47 49 53 59 63 67 70 72 72 71 72 71 68 64 58 51 46 43 39 35 36 33 34 38 42 44 47 51
39 34 31 28 32 36 42 45 48 49 49 50 50 52 56 55 55 55 54 53 55 54 50 48 47 45 45 50 59 62 63 64 64 62 59 57 57 55 52 47 40 33 32 35 42 45 46 44 44 48 54 58 58 57
45 42 42 41 41 41 41 42 44 42 41 41 39 39 39 42 44 45 48 51 47 42 41 40 40 44 54 57 54 52 52 52 52 53 53 51 48 42 34 32 36 44 45 44 42 42 42 42 47 52 60 64 67 69
58 54 52 49 48 46 48 46 45 43 41 43 46 46 45 45 45 42 45 46 43 38 37 41 44 50 51 51 51 52 53 53 52 49 44 36 31 31 37 40 43 41 39 39 41 42 43 47 51 57 62 70 70 72
63 62 62 62 61 61 60 59 57 56 57 54 52 51 49 50 49 48 50 47 44 42 45 46 49 51 53 53 54 53 52 47 46 40 33 30 36 40 40 39 39 38 38 40 44 46 49 54 59 62 69 71 78 78
73 68 70 71 71 70 69 68 68 67 64 64 64 60 59 56 57 58 55 48 46 45 46 46 49 51 53 53 52 50 45 45 39 32 33 34 34 38 38 39 41 41 44 48 53 57 59 60 67 69 76 78 80 87
81 74 73 73 76 75 73 73 73 71 71 71 69 64 61 64 64 60 54 50 49 51 52 54 58 59 58 57 57 55 49 33 28 33 34 32 32 35 39 40 42 47 53 58 60 61 65 68 69 78 79 87 89 90
74 77 79 76 78 79 80 76 71 69 71 70 68 69 70 71 66 58 55 54 59 60 60 63 65 66 67 64 59 47 37 32 29 30 29 31 34 38 40 42 45 50 55 59 62 66 69 73 78 80 87 89 92 95
66 72 76 78 78 75 78 81 80 78 74 72 72 75 71 69 65 64 64 66 67 68 70 73 74 73 71 67 53 41 36 32 29 29 30 34 36 38 40 44 46 49 53 58 64 68 73 78 81 86 89 94 97 97
69 67 66 74 77 76 76 78 79 77 75 75 78 74 69 69 66 67 70 72 74 75 77 79 78 76 73 61 48 41 35 30 33 34 36 39 42 43 43 46 49 49 50 55 62 67 75 80 83 89 90 92 93 98
66 63 64 68 71 72 70 73 76 75 74 74 72 70 69 69 68 69 72 75 78 80 82 80 78 76 66 53 46 37 31 31 33 33 38 41 44 47 47 46 48 50 51 52 58 66 76 82 87 89 90 90 88 92
71 68 67 67 70 68 69 71 72 73 73 74 72 72 72 73 72 72 73 75 79 81 81 78 74 65 54 48 39 34 32 33 34 34 36 39 43 48 49 46 48 49 51 52 56 63 70 77 86 90 91 91 94 97
72 70 69 71 71 69 69 75 76 76 76 75 72 72 73 75 76 75 71 71 73 72 69 66 61 54 49 41 35 33 34 35 35 36 37 40 45 49 53 51 48 53 58 63 63 61 64 69 79 86 91 92 92 95
71 68 70 70 70 69 73 76 79 80 79 75 74 73 73 72 70 67 63 61 60 60 60 59 54 50 43 36 34 34 35 36 38 39 40 42 48 53 57 61 55 56 59 66 69 68 67 67 72 81 88 93 94 95